#timestamp,LO_Frequency,Hit 
1502179215.6,286046991.9,N
1502179235.4,286046992.2,N
1502179255.2,286046996.1,N
1502179275.1,286046995.2,N
1502179276.0,286046995.2,N
1502179295.1,286046995.7,N
1502179296.0,286046995.7,N
1502179315.8,286046991.7,N
1502179335.6,286046992.3,N
1502179355.5,286046991.2,N
1502179375.3,286046987.3,N
1502179395.2,286046984.3,P
1502179415.9,286046993.3,N
1502179435.7,286046997.5,N
1502179455.6,286046998.9,N
1502179475.4,286047001.9,N
1502179495.2,286047001.4,N
1502179515.0,286047003.5,N
1502179515.9,286047003.5,N
1502179535.8,286047003.1,N
1502179555.6,286047008.2,N
1502179575.4,286047011.6,N
1502179595.3,286047011.0,N
1502179615.1,286047012.8,N
1502179635.8,286047015.9,N
1502179655.7,286047019.9,N
1502179675.5,286047021.2,N
1502179695.3,286047021.9,N
1502179715.2,286047022.2,N
1502179735.9,286047024.4,N
1502179755.7,286047024.4,N
1502179775.6,286047019.3,N
1502179795.4,286047021.7,N
1502179815.2,286047022.4,N
1502179835.0,286047021.0,N
1502179835.9,286047021.0,N
1502179855.8,286047021.7,N
1502179875.6,286047023.2,N
1502179895.4,286047023.7,N
1502179915.3,286047027.6,N
1502179935.1,286047027.9,N
1502179955.8,286047029.9,N
1502179975.7,286047032.6,P
1502179995.5,286047021.3,N
1502180015.3,286047020.5,N
1502180035.2,286047024.9,P
1502180055.0,286046999.0,N
1502180055.9,286046999.0,N
1502180075.7,286046993.3,N
1502180095.6,286046991.8,N
1502180115.4,286046994.7,N
1502180135.2,286046993.0,N
1502180155.1,286046992.4,N
1502180156.0,286046992.4,N
1502180175.8,286046988.6,N
1502180195.6,286046989.4,N
1502180215.5,286046989.4,N
1502180235.3,286046988.5,N
1502180255.1,286046989.8,N
1502180275.9,286046989.9,N
1502180295.7,286046987.5,N
1502180315.5,286046984.2,N
1502180335.4,286046986.6,N
1502180355.2,286046985.7,N
1502180375.0,286046987.9,N
1502180375.9,286046987.9,N
1502180395.8,286046984.8,N
1502180415.6,286046981.1,N
1502180435.4,286046986.5,N
1502180455.2,286046989.1,N
1502180475.1,286046990.0,N
1502180476.0,286046990.0,N
1502180495.8,286046989.7,N
1502180515.6,286046990.9,N
1502180535.5,286046993.5,N
1502180555.3,286046998.0,N
1502180575.1,286046997.1,N
1502180595.9,286046999.5,N
1502180615.0,286046998.5,N
1502180615.9,286046998.5,N
1502180635.7,286047005.9,N
1502180655.6,286047004.4,N
1502180675.4,286047005.9,N
1502180695.2,286047002.7,N
1502180715.1,286046997.3,N
1502180716.0,286046997.3,N
1502180735.8,286046995.9,N
1502180755.6,286046997.5,N
1502180775.5,286046997.5,N
1502180795.3,286046993.7,N
1502180815.1,286046992.0,N
1502180835.9,286046991.8,N
1502180855.7,286046993.0,N
1502180875.5,286046991.4,N
1502180895.4,286046991.4,N
1502180915.2,286046990.9,N
1502180935.0,286046991.1,N
1502180935.9,286046991.1,N
1502180955.8,286046988.6,N
1502180975.6,286046987.6,N
1502180995.4,286046987.8,N
1502181015.2,286046991.6,N
1502181035.1,286046987.3,N
1502181036.0,286046987.3,N
1502181055.8,286046991.0,N
1502181075.6,286046992.8,N
1502181095.5,286046991.0,N
1502181115.3,286046990.4,N
1502181135.1,286046989.4,N
1502181155.9,286046989.2,N
1502181175.7,286046987.1,N
1502181195.5,286046985.4,N
1502181215.4,286046985.3,P
1502181235.2,286046992.6,N
1502181255.0,286046995.7,N
1502181255.9,286046995.7,N
1502181275.8,286046995.8,N
1502181295.6,286046994.7,N
1502181315.4,286046992.8,N
1502181335.3,286046991.0,N
1502181355.1,286046990.1,P
1502181375.8,286046998.7,N
1502181395.7,286046998.3,N
1502181415.5,286046996.5,N
1502181435.3,286046999.6,N
1502181455.2,286046998.9,N
1502181475.9,286047002.2,N
1502181495.7,286047001.8,N
1502181515.6,286047003.8,N
1502181535.4,286047003.6,N
1502181555.2,286047002.3,N
1502181575.0,286047001.8,N
1502181576.0,286047001.8,N
1502181595.8,286047003.7,N
1502181615.6,286047006.7,N
1502181635.4,286047006.1,N
1502181655.3,286047005.4,N
1502181675.1,286047002.3,N
1502181695.8,286046996.9,N
1502181715.7,286046996.3,N
1502181735.5,286046992.3,N
1502181755.3,286046992.4,N
1502181775.2,286046996.0,N
1502181795.9,286046999.0,N
1502181815.7,286046995.1,N
1502181835.6,286046996.8,N
1502181855.4,286047000.8,N
1502181875.2,286046999.4,N
1502181895.0,286046996.1,N
1502181896.0,286046996.1,N
1502181915.8,286046993.3,N
1502181935.6,286046996.9,N
1502181955.4,286046996.7,N
1502181975.3,286046997.0,N
1502181995.1,286046996.5,N
1502182015.8,286046999.0,N
1502182035.7,286047000.4,N
1502182055.5,286047003.6,N
1502182075.3,286047001.9,N
1502182095.2,286047004.3,N
1502182115.9,286047001.4,N
1502182135.7,286047001.7,N
1502182155.6,286047002.9,N
1502182175.4,286047007.3,N
1502182195.2,286047006.2,N
1502182215.1,286047012.2,N
1502182216.0,286047012.2,N
1502182235.8,286047011.4,N
1502182255.6,286047015.3,N
1502182275.5,286047015.4,N
1502182295.3,286047015.5,N
1502182315.1,286047016.1,N
1502182335.8,286047019.5,N
1502182355.7,286047023.1,P
1502182375.5,286047022.4,N
1502182395.4,286047027.5,P
1502182415.2,286047031.0,P
1502182435.0,286047009.6,N
1502182435.9,286047009.6,N
1502182455.8,286047007.1,N
1502182475.6,286047007.9,N
1502182495.4,286047005.6,N
1502182515.3,286047003.0,N
1502182535.1,286047004.9,N
1502182536.0,286047004.9,N
1502182555.8,286047005.3,N
1502182575.6,286047004.1,N
1502182595.5,286047002.1,N
1502182615.3,286046998.4,N
1502182635.1,286046998.4,N
1502182655.9,286047000.6,N
1502182675.7,286047005.6,N
1502182695.5,286047004.9,N
1502182715.4,286047007.0,N
1502182735.3,286047006.2,N
1502182755.4,286047009.0,N
1502182775.2,286047007.9,N
1502182795.1,286047006.7,N
1502182796.0,286047006.7,N
